This is the latest recevied weather packets stored in our database for station/object OE3APM-13. If no packets are shown the sender has not sent any weather packets the latest 10 day(s).
| Time | Temp. | Humidity | Pressure | Rain* | Wind** | Luminosity | Snow |
|---|---|---|---|---|---|---|---|
| 1777632482 | 16.67° C | 48% | 1028.5 hPa | 0 mm | - | 1146 W/m² | - |
| 1777632182 | 16.11° C | 47% | 1028.5 hPa | 0 mm | - | 1130 W/m² | - |
| 1777631876 | 15.56° C | 48% | 1028.5 hPa | 0 mm | - | 1093 W/m² | - |
| 1777631572 | 15.56° C | 44% | 1028.6 hPa | 0 mm | - | 274 W/m² | - |
| 1777631271 | 16.11° C | 46% | 1028.6 hPa | 0 mm | - | 262 W/m² | - |
| 1777630974 | 15.56° C | 44% | 1028.6 hPa | 0 mm | - | 250 W/m² | - |
| 1777630669 | 15.56° C | 46% | 1028.7 hPa | 0 mm | - | 1071 W/m² | - |
| 1777630370 | 15.56° C | 45% | 1028.7 hPa | 0 mm | - | 248 W/m² | - |
| 1777630067 | 16.11° C | 44% | 1028.6 hPa | 0 mm | - | 260 W/m² | - |
| 1777629768 | 15.56° C | 47% | 1028.6 hPa | 0 mm | - | 302 W/m² | - |
| 1777629467 | 16.11° C | 45% | 1028.6 hPa | 0 mm | - | 183 W/m² | - |
| 1777629171 | 16.11° C | 47% | 1028.6 hPa | 0 mm | - | 979 W/m² | - |
| 1777628864 | 16.11° C | 50% | 1028.6 hPa | 0 mm | - | 909 W/m² | - |
| 1777628555 | 15.56° C | 44% | 1028.7 hPa | 0 mm | - | 844 W/m² | - |
| 1777628254 | 15.56° C | 44% | 1028.7 hPa | 0 mm | - | 643 W/m² | - |
| 1777627955 | 15.56° C | 48% | 1028.7 hPa | 0 mm | - | 847 W/m² | - |
| 1777627656 | 15.56° C | 47% | 1028.8 hPa | 0 mm | - | 854 W/m² | - |
| 1777627356 | 15.56° C | 48% | 1028.8 hPa | 0 mm | - | 875 W/m² | - |
| 1777627055 | 15° C | 48% | 1028.9 hPa | 0 mm | - | 867 W/m² | - |
| 1777626756 | 14.44° C | 45% | 1028.9 hPa | 0 mm | - | 844 W/m² | - |
| 1777626456 | 15° C | 48% | 1028.9 hPa | 0 mm | - | 830 W/m² | - |
| 1777626155 | 14.44° C | 48% | 1028.9 hPa | 0 mm | - | 800 W/m² | - |
| 1777625856 | 14.44° C | 46% | 1028.9 hPa | 0 mm | - | 810 W/m² | - |
| 1777625555 | 14.44° C | 47% | 1029 hPa | 0 mm | - | 786 W/m² | - |
| 1777625256 | 14.44° C | 49% | 1029 hPa | 0 mm | - | 770 W/m² | - |
* Rain latest hour (hover to see other rain measurements)
** Current wind speed in m/s (hover to see current wind gust speed)